Wind_Speed
107 101 100 88 76 73 68 71 65 62 58 48 45 47 36 34 30 28 28 26 22 20 26 25 23 23 25 24 24 22 24 27 28 30 31 28 26 26 28 30 32 36 39 40
106 95 96 88 80 75 75 69 65 57 55 49 45 47 36 34 29 26 26 22 20 16 23 22 23 23 24 27 26 25 26 28 30 31 33 33 30 29 28 30 31 33 36 39
98 92 96 88 80 75 70 68 66 59 56 50 46 43 36 34 29 27 27 24 22 15 18 19 21 20 25 27 28 28 28 30 31 32 34 35 37 36 35 36 37 38 41 44
91 97 95 87 79 74 71 69 62 58 56 50 46 39 35 33 29 29 30 24 23 21 21 22 20 23 23 29 31 31 31 32 35 36 34 34 37 40 41 41 43 45 47 49
91 95 92 82 77 76 76 70 58 59 54 51 46 42 37 34 31 31 29 26 25 26 26 23 23 23 25 26 31 33 34 34 35 37 37 38 39 40 39 41 43 45 47 50
94 93 87 84 82 80 75 66 59 60 54 52 47 45 35 34 33 32 30 32 28 27 28 27 27 26 27 29 30 33 36 38 38 40 41 43 41 38 39 41 43 44 47 50
100 99 92 87 83 78 71 65 62 58 53 53 46 44 37 36 34 33 32 34 32 31 31 30 33 33 33 32 33 34 36 38 41 43 44 46 47 48 46 46 49 51 54 56
98 94 90 84 77 70 68 66 62 56 55 52 46 46 37 33 32 32 33 34 35 34 34 34 37 38 39 40 41 41 41 42 44 45 47 50 52 54 55 58 59 59 61 63
96 91 92 83 76 72 69 64 59 59 58 54 49 46 41 36 32 33 34 36 36 37 39 39 40 41 42 45 46 47 46 47 47 49 51 53 56 61 63 63 65 66 68 69
94 89 80 79 77 72 70 65 61 59 59 55 51 48 44 41 36 35 36 38 39 40 41 43 43 45 46 47 49 50 53 53 52 52 52 55 60 62 65 67 70 72 74 76
87 84 80 79 75 70 67 63 61 60 57 54 53 50 47 44 42 40 39 38 40 43 46 48 49 50 51 52 53 55 56 57 57 56 58 60 63 67 70 72 76 79 80 81
81 78 77 76 72 72 70 68 65 58 57 58 60 53 48 47 46 45 46 46 46 48 49 51 52 54 55 55 56 59 59 61 63 64 65 67 70 72 73 76 80 81 83 85
78 76 73 70 69 67 63 62 63 64 66 62 59 61 56 52 50 49 49 51 52 53 54 55 57 59 60 58 60 62 63 65 67 69 71 74 74 75 77 80 81 79 82 87
79 77 72 70 70 68 65 68 71 70 63 65 63 65 58 55 53 53 56 56 57 58 60 60 60 63 63 63 64 66 68 69 71 72 73 75 79 79 78 80 79 81 86 90
75 75 73 71 71 71 70 65 64 61 67 61 67 62 64 60 62 62 62 63 63 64 65 64 65 67 68 66 67 68 72 73 72 73 76 79 79 76 78 81 84 86 89 95
74 75 73 71 70 69 68 66 63 63 65 64 68 69 72 66 66 65 65 67 68 68 69 69 70 70 70 69 70 73 74 73 74 76 78 78 77 80 81 83 88 91 96 98
70 74 73 72 71 68 65 67 69 68 67 69 67 75 68 68 68 69 69 69 70 71 72 72 71 72 72 72 73 73 74 75 76 77 74 73 75 79 85 88 91 95 94 89
51 67 73 72 71 68 71 70 69 69 70 70 74 75 72 70 70 70 71 71 72 72 72 73 72 71 71 72 71 73 73 76 75 70 72 77 81 85 88 92 93 89 89 92
41 46 56 67 73 75 76 76 75 74 74 74 75 75 75 74 74 73 73 72 73 74 74 73 70 69 69 70 71 73 75 72 71 74 76 80 85 89 91 92 87 90 94 100
36 41 44 49 56 65 71 71 72 73 75 75 76 76 75 76 74 72 70 71 69 67 64 63 64 67 68 69 71 71 71 71 72 78 82 85 88 91 88 89 93 98 101 106
23 26 31 34 38 43 46 51 54 57 61 61 63 62 62 63 63 61 59 58 58 59 62 64 64 63 65 67 69 68 70 74 78 82 85 89 89 87 91 96 98 104 110 116
25 24 24 26 29 31 33 34 34 36 37 40 42 43 47 49 51 53 55 58 59 58 57 58 60 65 66 64 66 71 76 80 82 85 87 84 88 91 95 101 107 113 117 122
29 30 31 32 33 33 35 36 37 39 41 42 44 47 49 51 53 54 53 53 54 58 59 59 60 60 64 70 73 77 79 81 83 82 84 88 92 96 103 109 115 120 125 128
23 26 29 31 31 33 37 39 40 40 42 43 43 43 44 44 46 49 51 55 55 56 58 61 65 69 70 73 75 77 78 77 79 84 88 93 99 105 111 117 122 126 130 133
26 24 24 26 27 27 28 30 33 34 36 38 40 41 43 46 49 51 53 56 59 61 61 63 66 67 69 71 71 71 75 79 85 90 96 101 107 113 118 124 127 130 136 138
26 27 30 32 34 37 37 36 37 41 44 45 46 47 50 53 55 57 57 57 58 60 61 62 65 66 63 67 71 75 81 86 92 97 103 110 114 119 122 124 129 135 135 134
Wind_Direction
201 200 195 197 196 198 200 202 207 207 205 207 215 210 214 218 222 224 230 239 253 262 259 271 296 257 262 265 268 273 285 289 291 300 295 285 283 280 276 273 269 266 266 267
198 194 190 194 194 194 197 200 206 205 200 206 212 207 211 216 221 226 231 242 248 262 263 275 300 268 255 268 270 274 282 288 288 294 297 293 283 277 274 271 270 270 271 272
191 188 188 191 192 194 197 201 206 202 196 206 212 207 209 217 221 230 236 247 256 259 270 282 293 294 266 272 270 276 281 284 288 288 289 290 289 283 276 272 271 271 273 274
183 185 187 190 190 192 195 201 203 199 191 206 212 212 213 215 219 230 238 248 255 266 274 281 291 293 289 275 275 278 282 284 286 287 285 288 285 284 280 279 277 275 275 276
181 180 186 186 188 191 197 199 197 191 191 205 210 216 215 221 225 233 242 251 258 266 275 285 291 292 292 290 281 282 287 287 290 291 286 287 286 286 285 282 279 280 280 281
177 182 185 187 190 192 194 197 195 191 195 204 211 218 214 224 231 236 240 253 262 270 279 283 290 294 300 295 293 284 285 292 296 295 292 291 288 285 282 283 284 283 283 283
176 183 185 190 190 191 194 195 199 197 198 206 212 222 219 225 233 241 248 255 263 272 281 287 292 294 297 296 294 292 289 291 290 293 294 294 293 292 288 285 284 282 282 282
179 183 186 189 188 191 196 197 202 203 205 211 214 224 226 223 234 244 251 259 265 273 277 282 288 292 294 296 297 298 298 296 296 294 293 294 295 294 290 289 288 288 287 288
180 183 188 187 188 194 197 199 203 206 209 213 217 223 229 233 237 247 253 259 264 271 275 279 284 289 293 294 295 296 297 297 298 298 296 294 291 293 292 291 291 291 291 291
183 187 186 187 191 194 197 201 205 209 212 215 221 223 228 240 240 246 254 260 266 271 277 280 284 288 292 294 293 293 293 294 297 299 298 292 290 291 291 291 290 290 289 289
186 189 188 191 193 195 200 204 209 213 216 219 226 230 231 240 249 254 258 265 269 273 278 281 286 291 294 294 291 291 291 292 293 293 295 296 295 295 295 291 289 288 289 290
190 193 193 194 196 200 202 206 211 216 222 223 227 235 240 242 250 258 262 267 272 275 281 284 286 290 291 291 290 290 291 290 290 291 292 295 298 298 298 294 291 290 291 292
195 197 199 199 200 203 207 211 215 219 224 229 233 239 242 247 252 257 265 270 274 275 280 283 283 288 289 288 288 289 289 290 289 289 291 296 298 297 295 292 294 290 291 292
197 201 201 202 205 208 212 213 217 221 227 233 236 241 245 251 257 262 265 271 274 276 280 282 283 287 287 285 287 287 288 290 291 292 293 296 298 296 294 294 292 292 293 296
200 204 206 208 210 213 217 219 222 225 230 237 243 249 252 255 258 263 268 270 272 275 280 282 282 284 283 284 285 286 287 290 292 294 295 297 297 293 292 292 293 294 296 298
204 207 210 213 216 218 222 224 227 229 233 237 242 246 251 254 259 263 266 269 273 276 279 281 282 283 283 283 284 285 289 291 293 295 296 295 293 292 293 292 294 298 300 302
207 210 213 216 219 222 225 228 230 233 237 241 245 248 253 256 260 264 267 270 273 276 278 279 280 280 281 282 284 287 289 292 293 296 295 293 292 292 293 296 300 302 303 302
206 213 216 219 221 224 228 230 233 235 239 242 245 250 255 258 261 264 267 270 272 274 274 276 278 279 280 282 286 289 290 293 295 292 291 292 293 294 298 302 303 302 302 304
205 208 214 220 223 226 230 233 235 238 242 245 248 252 256 260 263 265 267 269 271 273 276 277 278 280 283 286 288 289 291 291 290 291 292 293 296 300 302 303 302 303 305 306
205 211 214 217 222 227 232 235 239 241 244 247 251 255 258 261 262 264 266 269 272 274 275 277 280 282 283 284 286 290 291 290 291 293 295 298 301 302 302 303 304 305 306 307
204 209 213 219 223 227 231 235 240 243 248 250 252 256 259 261 263 265 268 269 272 274 276 277 280 281 281 284 290 288 290 291 293 296 299 299 301 302 303 304 306 307 307 307
203 214 215 217 219 220 223 225 228 234 240 243 247 250 253 258 261 263 266 268 271 275 277 279 280 284 285 287 289 289 290 293 296 297 299 301 301 303 305 306 306 306 307 308
223 224 225 228 232 232 235 240 242 245 247 249 252 257 259 260 263 265 267 269 271 274 279 282 284 285 286 288 289 291 293 295 297 299 300 302 304 305 305 305 307 308 308 308
219 224 226 230 231 233 239 243 246 248 250 252 254 256 258 260 262 263 267 271 275 278 283 285 285 285 286 288 291 294 295 297 299 301 303 304 305 305 306 307 308 308 308 307
228 231 236 236 240 242 241 241 246 251 254 256 259 262 264 265 266 269 272 275 279 281 281 283 285 288 290 292 294 295 297 299 301 303 304 304 305 306 307 308 308 308 306 305
233 236 236 240 241 243 246 250 250 250 249 252 256 259 262 264 266 269 274 276 278 282 285 285 289 291 293 294 296 298 300 301 302 304 305 305 306 307 308 308 308 306 306 308
Height
10504 10535 10570 10610 10634 10643 10658 10661 10678 10690 10703 10712 10716 10728 10729 10734 10739 10743 10745 10748 10749 10750 10751 10750 10748 10746 10747 10745 10744 10742 10740 10739 10738 10737 10734 10732 10728 10725 10723 10722 10720 10720 10719 10717
10493 10536 10573 10600 10617 10630 10642 10657 10671 10686 10697 10703 10711 10719 10723 10728 10734 10737 10740 10742 10744 10744 10744 10744 10743 10741 10741 10740 10738 10735 10734 10733 10730 10729 10727 10725 10721 10718 10716 10714 10713 10711 10710 10709
10502 10543 10564 10589 10607 10624 10641 10653 10662 10676 10689 10698 10704 10710 10717 10722 10727 10730 10734 10735 10738 10737 10738 10737 10738 10736 10735 10733 10732 10730 10728 10725 10723 10721 10719 10717 10714 10710 10708 10706 10704 10702 10700 10698
10507 10531 10560 10584 10603 10619 10634 10643 10658 10672 10684 10692 10698 10704 10710 10715 10721 10724 10726 10729 10730 10731 10731 10732 10731 10730 10729 10727 10725 10723 10721 10718 10716 10714 10711 10708 10705 10701 10699 10696 10694 10691 10689 10686
10504 10532 10555 10580 10600 10612 10621 10637 10652 10667 10677 10685 10691 10696 10703 10708 10713 10717 10720 10722 10722 10724 10725 10725 10724 10723 10722 10720 10717 10715 10713 10711 10709 10706 10703 10700 10697 10694 10691 10688 10684 10681 10677 10674
10507 10535 10558 10573 10585 10600 10617 10634 10648 10660 10669 10678 10683 10689 10698 10703 10707 10710 10713 10714 10715 10716 10718 10718 10717 10716 10714 10712 10710 10707 10705 10703 10701 10699 10696 10693 10690 10687 10683 10679 10675 10671 10666 10661
10505 10524 10547 10564 10579 10598 10615 10630 10641 10654 10664 10670 10677 10682 10689 10696 10700 10703 10705 10706 10707 10708 10709 10710 10708 10707 10706 10705 10703 10700 10698 10695 10692 10689 10686 10683 10680 10676 10672 10667 10663 10658 10654 10648
10507 10524 10542 10566 10586 10608 10619 10628 10639 10651 10657 10665 10672 10674 10682 10689 10694 10697 10698 10698 10699 10700 10701 10702 10700 10699 10697 10696 10694 10691 10688 10685 10682 10679 10676 10672 10669 10665 10659 10655 10650 10644 10638 10633
10511 10531 10540 10566 10585 10598 10611 10625 10637 10644 10650 10657 10663 10667 10675 10682 10688 10689 10690 10691 10692 10693 10693 10693 10692 10691 10689 10687 10683 10681 10678 10675 10672 10669 10665 10661 10657 10652 10647 10642 10637 10630 10624 10618
10514 10530 10552 10568 10579 10593 10605 10616 10628 10638 10642 10651 10654 10661 10669 10672 10678 10681 10682 10683 10684 10685 10685 10683 10683 10681 10680 10678 10674 10671 10667 10663 10661 10657 10654 10649 10643 10638 10634 10629 10622 10616 10609 10602
10523 10535 10552 10564 10579 10593 10605 10617 10626 10630 10638 10646 10647 10653 10660 10666 10668 10672 10674 10676 10676 10676 10675 10674 10673 10671 10669 10667 10663 10660 10656 10652 10649 10645 10641 10636 10630 10625 10620 10613 10606 10599 10592 10585
10530 10542 10553 10565 10578 10587 10597 10607 10616 10628 10632 10637 10637 10645 10653 10659 10661 10662 10664 10666 10666 10665 10665 10664 10662 10660 10658 10655 10651 10648 10644 10640 10636 10631 10627 10622 10616 10611 10605 10596 10588 10581 10574 10566
10532 10544 10556 10570 10579 10589 10602 10609 10614 10618 10620 10628 10636 10637 10641 10647 10652 10655 10657 10657 10656 10656 10656 10654 10651 10649 10646 10643 10639 10635 10631 10627 10622 10617 10612 10607 10600 10594 10587 10578 10571 10562 10554 10546
10527 10539 10554 10565 10573 10583 10592 10595 10599 10607 10619 10621 10628 10625 10635 10639 10642 10646 10646 10647 10647 10645 10644 10642 10640 10637 10633 10630 10626 10621 10616 10612 10607 10602 10597 10591 10583 10576 10569 10561 10552 10544 10534 10525
10531 10540 10550 10558 10566 10573 10581 10593 10602 10613 10611 10620 10615 10623 10623 10631 10633 10633 10635 10636 10635 10634 10632 10630 10627 10623 10619 10615 10611 10607 10601 10597 10592 10587 10581 10573 10565 10557 10550 10542 10533 10523 10514 10503
10524 10534 10544 10553 10561 10571 10579 10587 10596 10603 10606 10610 10609 10610 10607 10619 10621 10624 10624 10623 10623 10621 10618 10615 10612 10609 10605 10601 10596 10591 10587 10582 10576 10570 10563 10555 10547 10540 10531 10523 10514 10504 10492 10481
10521 10529 10539 10547 10555 10565 10576 10581 10584 10590 10597 10597 10602 10590 10606 10608 10610 10611 10612 10612 10610 10607 10604 10601 10598 10594 10590 10585 10581 10577 10572 10566 10559 10553 10545 10538 10529 10521 10512 10503 10494 10483 10470 10456
10516 10525 10534 10542 10550 10558 10560 10568 10575 10580 10585 10588 10584 10586 10594 10598 10599 10600 10598 10597 10595 10593 10590 10586 10583 10580 10575 10571 10567 10561 10555 10549 10541 10536 10528 10520 10511 10502 10493 10483 10472 10460 10447 10435
10513 10519 10527 10534 10539 10545 10551 10557 10564 10570 10574 10577 10576 10578 10583 10585 10587 10587 10585 10583 10580 10578 10577 10573 10569 10565 10560 10556 10551 10545 10539 10532 10525 10519 10511 10502 10493 10484 10473 10462 10450 10438 10426 10410
10508 10514 10520 10526 10532 10537 10544 10550 10555 10560 10560 10563 10567 10569 10572 10572 10573 10572 10572 10570 10568 10565 10562 10558 10554 10550 10546 10541 10536 10530 10523 10516 10509 10501 10492 10483 10473 10463 10453 10441 10428 10415 10402 10387
10506 10511 10515 10521 10525 10531 10537 10542 10547 10549 10550 10555 10556 10558 10559 10559 10560 10559 10557 10556 10554 10551 10547 10543 10540 10536 10531 10526 10522 10514 10506 10499 10492 10483 10473 10463 10454 10444 10432 10419 10405 10391 10378 10363
10502 10507 10512 10515 10519 10524 10528 10532 10536 10538 10539 10542 10543 10545 10546 10546 10546 10546 10544 10541 10538 10535 10533 10530 10527 10523 10518 10512 10507 10499 10490 10482 10474 10464 10455 10445 10434 10422 10409 10395 10381 10366 10352 10336
10497 10501 10505 10509 10512 10517 10520 10524 10526 10527 10529 10532 10533 10533 10534 10533 10532 10531 10529 10527 10525 10523 10521 10518 10514 10509 10504 10498 10490 10481 10472 10464 10455 10446 10437 10424 10412 10400 10386 10372 10356 10339 10321 10303
10491 10495 10498 10501 10504 10507 10511 10513 10516 10517 10519 10520 10520 10521 10521 10521 10520 10519 10517 10516 10514 10512 10509 10505 10501 10495 10489 10482 10473 10465 10457 10447 10438 10427 10416 10404 10391 10376 10361 10345 10328 10308 10289 10268
10487 10491 10493 10495 10498 10501 10504 10506 10507 10509 10510 10511 10511 10512 10511 10510 10509 10507 10506 10504 10502 10499 10495 10491 10485 10479 10472 10465 10457 10449 10440 10430 10418 10407 10395 10382 10368 10353 10337 10319 10300 10279 10254 10234
10482 10484 10486 10488 10491 10494 10495 10497 10499 10500 10500 10501 10501 10501 10500 10498 10497 10496 10494 10491 10487 10484 10480 10475 10469 10464 10457 10450 10441 10432 10421 10410 10398 10385 10373 10359 10344 10329 10312 10295 10274 10247 10225 10202